Wetbulb
79.45 78.65 78.89 80.28 79.54 78.79 76.74 76.66 79.12 79.27 78.57 77.12 77.67 77.40 76.42 75.53 74.15 74.15 72.87 72.30 71.33 70.16
79.70 79.32 78.40 79.99 80.39 79.34 80.69 78.80 79.16 78.57 77.46 77.30 76.70 76.70 77.04 74.06 73.59 73.91 72.34 69.34 67.98 66.78
79.40 79.74 80.04 80.87 81.17 79.71 81.14 80.03 78.56 77.35 76.86 76.24 76.46 75.97 76.40 73.72 74.07 70.92 69.65 67.52 66.88 65.12
78.95 79.68 79.60 79.60 79.79 80.61 81.80 79.23 78.17 77.15 76.18 75.72 75.37 75.97 75.16 72.99 72.15 70.20 69.28 67.96 66.33 64.34
79.14 79.32 79.29 78.75 79.43 80.81 81.45 79.57 78.44 77.39 76.47 76.25 75.80 75.83 74.43 72.21 70.80 70.30 67.69 65.96 65.67 63.73
78.81 78.73 78.50 78.63 78.87 80.33 80.59 79.08 78.01 76.85 75.64 75.50 74.89 74.38 73.93 71.90 71.67 69.37 67.18 66.37 65.05 64.61
77.87 78.40 78.37 78.93 78.91 79.47 79.72 78.82 77.71 76.08 75.98 75.18 74.75 73.30 72.97 72.04 70.82 68.33 66.45 66.00 65.16 65.43
78.30 78.89 79.33 79.35 79.46 80.19 79.56 78.85 76.48 74.76 73.94 73.27 73.09 72.46 72.15 71.33 69.13 67.76 65.48 65.53 65.25 65.29
79.96 80.00 80.43 82.42 79.05 76.71 77.58 77.07 73.52 71.20 70.30 71.59 70.94 66.94 69.81 70.62 67.67 65.64 64.86 64.70 64.69 64.12
80.91 81.23 80.57 71.33 67.47 67.95 70.01 71.40 71.14 71.16 71.17 69.31 67.73 65.71 66.03 69.13 66.30 65.31 65.19 65.70 65.55 64.69
81.25 74.76 71.09 71.40 70.43 70.19 70.75 70.02 69.62 69.08 68.67 66.18 65.18 64.33 64.66 66.13 65.79 65.64 66.51 66.37 65.90 62.83
72.39 69.37 68.58 70.01 69.52 70.26 69.89 67.42 68.03 71.05 68.83 64.96 64.11 62.16 62.44 63.55 65.60 65.25 65.11 62.26 61.74 61.60
72.11 69.69 69.54 68.58 69.99 69.46 69.22 69.93 68.08 70.13 66.34 63.05 62.70 60.23 60.11 61.76 65.97 61.39 59.55 60.63 60.29 60.08
73.10 72.68 72.76 72.75 71.62 70.91 69.52 72.07 70.42 66.41 65.23 64.24 63.80 62.09 57.25 57.72 63.49 61.09 60.27 59.91 60.77 59.08
MSLP
1010.66 1010.76 1010.74 1010.84 1011.04 1011.18 1011.74 1012.30 1012.84 1013.11 1013.38 1013.86 1014.03 1014.24 1014.53 1014.83 1015.04 1015.21 1015.42 1015.63 1015.65 1015.54
1010.11 1010.38 1010.36 1010.60 1010.85 1011.01 1011.27 1012.09 1012.73 1012.98 1013.52 1013.93 1014.25 1014.64 1014.81 1014.94 1015.23 1015.40 1015.47 1016.05 1016.22 1016.24
1009.40 1009.81 1010.09 1010.13 1010.32 1010.63 1010.78 1011.44 1012.22 1012.84 1013.45 1013.85 1014.16 1014.49 1014.68 1015.03 1015.49 1016.00 1016.18 1016.47 1016.82 1016.79
1008.75 1009.10 1009.46 1009.68 1009.88 1010.27 1010.65 1011.27 1011.94 1012.61 1013.20 1013.62 1014.03 1014.51 1015.06 1015.17 1015.59 1015.83 1016.34 1016.87 1016.94 1017.21
1007.95 1008.32 1008.71 1009.31 1009.66 1010.16 1010.63 1011.20 1011.82 1012.75 1013.45 1014.02 1014.54 1014.77 1014.91 1015.20 1015.54 1016.08 1016.59 1016.61 1017.04 1017.57
1007.29 1007.89 1008.28 1008.70 1009.17 1009.75 1010.21 1010.82 1011.57 1012.23 1012.82 1013.27 1013.62 1014.12 1014.62 1015.07 1015.58 1016.14 1016.66 1017.14 1017.41 1017.33
1006.46 1006.99 1007.46 1007.91 1008.51 1008.89 1009.71 1010.66 1011.54 1012.49 1013.18 1013.34 1013.56 1014.18 1014.67 1014.99 1015.53 1016.27 1016.90 1017.05 1017.55 1017.91
1005.63 1006.33 1006.93 1007.41 1008.14 1009.15 1010.38 1011.13 1011.64 1012.41 1013.17 1014.65 1014.32 1015.00 1015.16 1015.47 1015.49 1016.08 1016.79 1017.32 1017.39 1017.76
1005.58 1006.42 1007.12 1007.63 1008.92 1010.38 1010.84 1011.40 1012.04 1012.84 1014.17 1014.26 1014.56 1015.55 1015.56 1015.85 1015.60 1016.47 1017.09 1017.22 1017.41 1017.63
1005.79 1006.66 1007.48 1008.90 1009.93 1010.26 1011.25 1011.57 1010.69 1012.64 1013.91 1014.63 1014.23 1014.54 1015.47 1015.70 1015.68 1015.87 1017.01 1017.06 1016.95 1016.97
1005.78 1007.10 1008.11 1008.80 1009.43 1009.73 1009.41 1009.66 1009.97 1011.22 1013.12 1014.72 1015.18 1015.43 1015.43 1015.42 1015.26 1015.78 1016.78 1016.92 1016.81 1016.98
1006.27 1007.50 1008.09 1008.52 1008.80 1009.13 1010.36 1011.36 1011.38 1011.18 1012.41 1013.89 1014.65 1015.13 1015.16 1015.22 1015.41 1015.92 1016.49 1016.73 1016.97 1017.21
1006.78 1007.54 1008.00 1008.47 1009.23 1009.76 1010.17 1010.65 1011.43 1011.82 1012.52 1013.53 1014.20 1014.39 1015.11 1015.40 1015.78 1016.47 1016.81 1016.93 1017.08 1017.19
1007.34 1008.06 1008.78 1009.00 1009.51 1009.85 1010.37 1010.78 1011.28 1012.05 1012.89 1013.65 1014.02 1014.73 1015.67 1015.92 1016.09 1016.59 1016.89 1016.72 1016.64 1017.04
Wind_Speed
10 6 6 5 4 4 4 6 8 4 5 6 4 4 2 2 3 4 4 6 5 4
10 10 8 7 6 4 6 7 7 6 6 6 5 4 2 3 4 3 4 7 7 5
12 12 9 7 7 7 6 9 10 8 7 7 6 5 5 5 5 6 4 6 6 6
12 13 12 9 8 7 5 11 10 9 8 8 7 4 5 7 6 7 5 5 5 5
13 13 13 12 9 8 6 11 10 8 7 6 5 4 5 6 7 6 5 6 6 5
14 13 13 13 11 10 9 11 12 10 10 9 9 8 6 7 5 7 6 4 5 6
15 14 13 12 12 14 12 11 10 8 6 7 7 8 6 7 7 6 5 6 5 4
13 13 11 10 11 9 10 9 9 8 5 3 3 4 6 6 8 7 6 5 5 5
9 9 7 4 7 8 6 2 5 5 3 7 9 9 9 7 8 6 5 5 6 6
8 8 7 17 14 11 12 15 12 7 5 4 2 9 5 11 7 7 5 6 5 5
9 14 15 15 13 12 13 13 13 14 10 8 6 8 8 7 7 7 6 5 4 5
17 16 15 16 16 11 4 4 7 10 14 13 9 11 10 7 6 8 6 4 4 3
14 15 13 12 7 2 2 5 6 7 11 12 11 11 10 6 2 5 4 5 5 6
11 12 9 5 2 0 2 5 9 11 10 11 10 8 5 4 4 5 5 6 6 6
Wind_Direction
211 227 218 211 256 218 158 160 151 168 119 97 141 98 135 61 101 43 88 66 25 331
195 214 213 225 211 242 117 131 150 129 127 145 119 162 221 115 85 68 73 69 26 354
200 203 226 206 196 211 180 146 148 144 150 150 150 155 200 138 103 60 36 79 53 25
199 202 206 228 204 193 156 141 151 158 164 167 167 168 92 90 96 102 92 100 104 85
196 198 200 208 206 183 182 154 154 158 165 163 166 152 128 163 135 140 109 109 92 43
200 199 203 199 205 181 179 166 164 170 174 175 172 154 159 128 133 105 112 126 116 127
195 202 204 199 194 184 178 169 164 161 179 194 158 145 151 137 118 113 123 117 126 114
197 196 198 204 185 166 151 157 142 139 116 354 320 189 144 150 126 124 128 126 153 113
187 181 195 187 134 77 123 130 116 116 358 106 109 289 152 145 124 115 146 172 148 162
168 162 126 97 99 103 98 114 131 236 167 169 22 151 199 138 133 139 204 191 192 195
159 107 113 114 125 144 166 168 166 170 183 144 140 159 182 136 152 153 190 177 163 114
117 130 132 136 157 165 154 163 182 154 144 152 164 181 180 147 166 158 175 150 134 127
134 143 154 152 149 92 141 132 153 151 142 151 169 182 188 164 88 129 158 171 154 151
131 133 142 139 169 124 153 162 146 132 142 160 167 166 152 150 151 166 205 193 188 171